Havre, MT

9:38 AM MST on February 09, 2016 (GMT -0700)
Havre City-County

Weather History for KHVR - November, 2011

Change the Weather History Date:

Wednesday, November 2, 2011

  Actual Average Record
Temperature  
Mean Temperature 37 °F 37 °F  
Max Temperature 52 °F 49 °F 75 °F (1903)
Min Temperature 22 °F 24 °F -20 °F (1935)
Degree Days  
Heating Degree Days 28 28  
Month to date heating degree days 60 56  
Since 1 July heating degree days 785 1055  
Cooling Degree Days 0 0  
Month to date cooling degree days 0 0  
Year to date cooling degree days 370 387  
Moisture  
Dew Point 13 °F    
Average Humidity 52    
Maximum Humidity 88    
Minimum Humidity 16    
Precipitation  
Precipitation 0.00 in 0.01 in 0.16 in (1933)
Month to date precipitation T 0.03  
Year to date precipitation 11.41 10.40  
Snow  
Snow 0.00 in 0.10 in 1.00 in (1919)
Month to date snowfall T 0.2  
Since 1 July snowfall T 2.5  
Since 1 September snowfall T 2.5  
Snow Depth 0.00 in    
Sea Level Pressure  
Sea Level Pressure 30.23 in    
Wind  
Wind Speed 13 mph (SW)    
Max Wind Speed 30 mph    
Max Gust Speed 36 mph    
Visibility 10 miles    
Events      
T = Trace of Precipitation, MM = Missing Value Source: NWS Daily Summary

Daily Weather History Graph

Daily Weather History Graph

Search for Another Location

Airport or City:

Trip Planner

Search our weather history database for the weather conditions in past years. The results will help you decide how hot, cold, wet, or windy it might be!

Date:

Astronomy

Nov. 02, 2011 Rise Set
Actual Time 8:06 AM MDT 5:57 PM MDT
Civil Twilight 7:33 AM MDT 6:30 PM MDT
Nautical Twilight 6:56 AM MDT 7:08 PM MDT
Astronomical Twilight 6:19 AM MDT 7:44 PM MDT
Moon 2:26 PM MDT (11/2) No Moon Set
Length of Visible Light 10h 57m
Length of Day
9h 51m
Waxing Crescent, 51% of the Moon is Illuminated
Nov 2
Waxing Crescent
Nov 10
Full
Nov 18
Last Quarter
Nov 24
New
Dec 2
First Quarter

Hourly Weather History & Observations

Time (MDT) Temp. Windchill Dew Point Humidity Pressure Visibility Wind Dir Wind Speed Gust Speed Precip Events Conditions
12:53 AM 25.0 °F 14.2 °F 19.9 °F 81% 30.43 in 10.0 mi SW 11.5 mph - N/A   Clear
1:53 AM 23.0 °F 10.6 °F 19.0 °F 85% 30.43 in 10.0 mi SW 13.8 mph - N/A   Clear
2:53 AM 21.9 °F 9.8 °F 18.0 °F 85% 30.42 in 10.0 mi SW 12.7 mph - N/A   Clear
3:53 AM 23.0 °F 10.6 °F 18.0 °F 81% 30.40 in 10.0 mi SW 13.8 mph - N/A   Clear
4:53 AM 23.0 °F 10.6 °F 17.1 °F 78% 30.39 in 10.0 mi SW 13.8 mph - N/A   Clear
5:53 AM 23.0 °F 11.7 °F 16.0 °F 74% 30.39 in 10.0 mi SW 11.5 mph - N/A   Clear
6:53 AM 25.0 °F 13.1 °F 17.1 °F 72% 30.40 in 10.0 mi WSW 13.8 mph - N/A   Clear
7:53 AM 23.0 °F 13.1 °F 15.1 °F 72% 30.40 in 10.0 mi West 9.2 mph - N/A   Clear
8:53 AM 23.0 °F 13.1 °F 15.1 °F 72% 30.37 in 10.0 mi WSW 9.2 mph - N/A   Clear
9:53 AM 33.1 °F 24.9 °F 18.0 °F 54% 30.32 in 10.0 mi WSW 10.4 mph - N/A   Clear
10:53 AM 39.9 °F 30.8 °F 16.0 °F 38% 30.31 in 10.0 mi WSW 18.4 mph - N/A   Clear
11:53 AM 42.1 °F 33.1 °F 15.1 °F 34% 30.28 in 10.0 mi WSW 20.7 mph 26.5 mph N/A   Clear
12:53 PM 46.0 °F 37.0 °F 12.0 °F 25% 30.23 in 10.0 mi SW 27.6 mph 35.7 mph N/A   Clear
1:53 PM 48.0 °F - 12.0 °F 24% 30.21 in 10.0 mi SW 19.6 mph 32.2 mph N/A   Clear
2:53 PM 51.1 °F - 10.9 °F 20% 30.17 in 10.0 mi SW 21.9 mph 29.9 mph N/A   Clear
3:53 PM 51.8 °F - 10.4 °F 19% 30.08 in 10.0 mi SW 18.4 mph - N/A   Clear
4:53 PM 52.0 °F - 7.0 °F 16% 30.11 in 10.0 mi SW 18.4 mph - N/A   Clear
5:53 PM 46.9 °F - 6.1 °F 19% 30.11 in 10.0 mi WSW 11.5 mph - N/A   Clear
6:53 PM 39.9 °F 33.4 °F 8.1 °F 27% 30.10 in 10.0 mi SW 10.4 mph - N/A   Clear
7:53 PM 32.0 °F 25.6 °F 9.0 °F 38% 30.09 in 10.0 mi WSW 6.9 mph - N/A   Clear
8:53 PM 45.0 °F 38.9 °F 5.0 °F 19% 30.03 in 10.0 mi SSW 12.7 mph - N/A   Clear
9:53 PM 36.0 °F - 8.1 °F 31% 30.00 in 10.0 mi Calm Calm - N/A   Clear
10:53 PM 37.0 °F 33.3 °F 6.1 °F 28% 29.97 in 10.0 mi WSW 4.6 mph - N/A   Clear
11:53 PM 32.0 °F - 8.1 °F 37% 29.96 in 10.0 mi Calm Calm - N/A   Clear